Погода в Днепропетровске

Погода в Днепропетровске : погода сейчас, прогноз погоды и архив. Всё, что Вы хотите узнать о погоде в Днепропетровске!

Хотите узнать прогноз погоды в Днепропетровске? Тогда Вам сюда: Погода в Днепропетровске

Поиск расширенной информации на нашем сайте:

Другие новости

Новости СМИ2

Главная страница сайта

Новости сайта

03.07.2017

Напоминаем, что на нашем специализированном сайте Метеоцентр.Азия вы можете получить высокодетализированные автоматические прогнозы погоды по пунктам России, СНГ и мира в авиационном формате (включающие направление и скорость ветра, видимость, явления погоды, количество и форму облачности, нижнюю и верхнюю границу облачности).

Рекомендуем: Подольск и ремонт ноутбуков Щербинка. Ремонт ноутбуков в Подольске лучшие цены в Москве.

Погода в Днепропетровске - сегодня

Время (UTC), дата Ветер
(°,м/с) 
Видим.   Явления Облачность Т
(°С)
Тd
(°С)
f(%) Тe
(°С)
Pmin
(гПа)
dP
(гПа)
Po
(мм)
O2
(г/м3)
Тmin Tmax R s Состояние
почвы
00 22.04.18 280 (З) 10 км    9/0 верхняя 
[Cc]
+11.6 +4.3 61 +11  1004.1  -0.8  740  285           
03 22.04.18 340 (С) 10 км    ясно 
+12.6 +2.3 49 +11  1005.4  1.3  741  285           
06 22.04.18 360 (С) 10 км    ясно 
+14.8 +0.3 37 +14  1007.2  1.9  743  284  +10.1         
09 22.04.18 300 (СЗ) 10 км    3/3 1500 м 
[Cu hum]
+17.1 +1.1 34 +17  1007.2  0.1  743  281           
12 22.04.18 310 (СЗ) 10{18}  10 км    5/5 1500 м 
[Cu hum]
+18.8 -0.4 27 +18  1006.9  -0.2  742  280           
15 22.04.18 310 (СЗ) 10 км    6/6 1500 м 
[Sc]
+16.3 -1.8 29 +16  1007.5  0.5  743  283           
18 22.04.18 310 (СЗ) 10 км    4/4 1500 м 
[Sc]
+11.6 +0.2 45 +11  1009.2  1.4  744  287    +18.9       
21 22.04.18 010 (С) 10 км    6/0 средняя 
[Ac trans]
+11 +0.9 50 +10  1010.4  1.1  745  288           
00 23.04.18 260 (З) 10 км    8/0 средняя 
[Ac trans]
+8.7 +2 63 +9  1010.7  0.2  745  291           
03 23.04.18 330 (СЗ) 10 км    6/0 средняя 
[Ac trans]
+7.4 +2.4 71 +7  1011.7  0.9  746  292           
06 23.04.18 360 (С) 10 км    ясно 
+11.7 +2.5 53 +11  1012.7  1.2  746  288  +7.2         
09 23.04.18 360 (С) 10 км    5/5 1500 м 
[Cu hum]
+14.8 +0.6 38 +14  1013  0.5  747  285           
12 23.04.18 340 (С) 10 км    8/8 1500 м 
[Cu hum]
+14.8 +0.6 38 +14  1013.5  0.5  747  285           
15 23.04.18 330 (СЗ) 10 км    6/3 1500 м верхняя 
[Cu hum|Ci]
+16 -1.7 30 +16  1013.3  -0.1  747  285           
18 23.04.18 010 (С) 10 км    ясно 
+9.7 -1 47 +10  1015.2  1.5  748  291    +17.3       
21 23.04.18 080 (В) 10 км    3/3 1500 м 
[Sc]
+7.6 -2.4 49 +7  1016.2  0.8  749  294           
00 24.04.18 110 (В) 10 км    ясно 
+4.9 -2.4 59 +4  1016.7  0.3  749  297           
03 24.04.18 130 (ЮВ) 10 км    3/0 средняя 
[Ac trans]
+4 -1.2 69 +3  1016.6  -0.1  749  298           
06 24.04.18 150 (ЮВ) 10 км    6/0 верхняя 
[Ci ing]
+11.6 +2.1 52 +12  1015.9  -0.2  749  289  +3.9         
09 24.04.18 190 (Ю) 10 км    8/0 верхняя 
[Ci]
+18.4 +2.9 36 +19  1014.4  -1.1  748  282           
12 24.04.18 250 (З) 10 км    9/5 1500 м средняя 
[Cu hum|Ac As]
+21.4 +5.1 34 +21  1012.2  -2  746  278           
15 24.04.18 260 (З) 7000 м  слаб. ливневой дождь  10/10 1000 м кучево-дожд. 
[Cb cap]
+13.9 +11.7 87 +18  1012.9  0.3  747  284           
18 24.04.18 160 (Ю) 10 км  в посл. час ливневой дождь  8/4 1000 м кучево-дожд., средняя 
[Cb calv|Ac trans]
+12.6 +11.7 94 +16  1011.8  -1.2  746  285    +21.8     
21 24.04.18 250 (З) 10 км    4/0 средняя 
[Ac trans]
+11.5 +7.8 78 +11  1011.5  -0.3  746  287           
00 25.04.18 290 (З) 10 км    3/0 средняя 
[Ac trans]
+9.2 +7.1 87 +10  1011.7  746  289           
Время (UTC), дата Ветер
(°,м/с) 
Видим.   Явления Облачность Т
(°С)
Тd
(°С)
f(%) Тe
(°С)
Pmin
(гПа)
dP
(гПа)
Po
(мм)
O2
(г/м3)
Тmin Tmax R s Состояние
почвы

Для получения пояснительной информации подведите курсор к названию столбца.

ПОГОДА в Днепропетровске - архив

Всё, что Вы хотите узнать о погоде в Днепропетровске - удобно и подробно!

Выберите нужную дату (начиная с 1 января 2015* года) и нажмите кнопку "Найти".
Будут отображены архивные сводки погоды по пункту Днепропетровск, начиная с указанной даты.


Отображать данные в формате CSV (для использования в таблицах Excel)


Внимание! Наш архив погоды предназначен исключительно для личного некоммерческого использования в познавательных целях. Если Вам необходимы официальные справки о состоянии погоды (для производственных, юридических, коммерческих и т.п. целей), обращайтесь в органы Росгидромета.

*Примечание: данная дата относится к архиву по метеостанциям СССР (Россия, СНГ, Балтия).
Архив по метеостанциям Зарубежной Европы и Азии (кроме Китая) хранится 10 дней, по другим регионам земного шара (Китай, Африка, Америка, Австралия, Океания) - 1 день.

Днепропетровск - район местоположения метеостанции


Название, широта, долгота, высота метеостанции:
Днепропетровск (Кайдаки) 48.6°ш. 35°д. 143 м над ур. моря [Украина]

Дополнительная информация

В oтличие oт бoльшинства пoгoдных сайтoв мы публикуем пoдрoбную метеoинфoрмацию в детальнoм прoфессиoнальнoм фoрмате.

Характеристики температуры и влажнoсти вoздуха измеряются на высoте 2 м в тени вдали oт зданий и деревьев.
Скoрoсть ветра измеряется на высoте 10 м (на урoвне рoста челoвека скoрoсть ветра ниже в 1.5-2 раза). Если метеoстанция нахoдится в гoрoде или в лесу, тo скoрoсть ветра занижена на 2-4 м/с пo сравнению с oткрытым местoм. Скoрoсть ветра над акватoриями крупных рек и oзёр, а также на вершинах хoлмoв на 2-5 м/с выше, чем в oбычных услoвиях.
Атмoсфернoе давление в разных тoчках местнoсти мoжет значительнo oтличаться oт давления на метеoстанции, в зависимoсти oт услoвий рельефа (при пoдъёме на 10 м давление пoнижается примернo на 1 мм рт.ст.).